Weather reports worldwide

Advertisment
Newton Rigg, United Kingdom (99152): temperature & dewpoint: 15.05.2019 04:00:00 - 21.05.2019 04:00:00 (BST)Newton Rigg, United Kingdom (99152): temperature -20cm & temperature -100cm: 15.05.2019 04:00:00 - 21.05.2019 04:00:00 (BST)Newton Rigg, United Kingdom (99152): precipitation: 15.05.2019 04:00:00 - 21.05.2019 04:00:00 (BST)
Date & Time tt [°C] td [°C] tt -20cm [°C] tt -100cm [°C] rr [mm]
21.05.2019 04:00:00 5,5 5,2 - - 0,0
21.05.2019 03:00:00 5,3 5,0 - - 0,0
21.05.2019 02:00:00 5,4 4,6 - - 0,0
21.05.2019 01:00:00 6,6 5,5 - - 0,0
21.05.2019 00:00:00 7,3 6,1 - - 0,0
20.05.2019 23:00:00 8,1 6,4 - - 0,0
20.05.2019 22:00:00 8,8 5,8 - - 0,0
20.05.2019 21:00:00 11,2 7,0 - - 0,0
20.05.2019 20:00:00 13,9 6,6 - - 0,0
20.05.2019 19:00:00 13,0 8,8 - - 0,0
20.05.2019 18:00:00 14,5 8,8 - - 0,0
20.05.2019 17:00:00 15,3 8,0 - - 0,0
20.05.2019 16:00:00 15,6 7,4 - - 0,0
20.05.2019 15:00:00 15,3 8,2 - - 0,0
20.05.2019 14:00:00 14,7 7,2 - - 0,0
20.05.2019 13:00:00 14,9 7,9 - - 0,0
20.05.2019 12:00:00 15,0 6,8 - - 0,0
20.05.2019 11:00:00 14,1 7,5 - - 0,0
20.05.2019 10:00:00 12,7 8,2 12,2 10,7 0,0
20.05.2019 09:00:00 12,6 7,7 - - 0,0
20.05.2019 08:00:00 11,3 8,8 - - 0,0
20.05.2019 07:00:00 7,5 7,1 - - 0,0
20.05.2019 06:00:00 7,2 6,5 - - 0,0
20.05.2019 05:00:00 8,1 7,0 - - 0,0
20.05.2019 04:00:00 9,1 7,7 - - 0,0
20.05.2019 03:00:00 9,6 7,8 - - 0,0
20.05.2019 02:00:00 10,0 8,2 - - 0,0
20.05.2019 01:00:00 10,3 8,1 - - 0,0
20.05.2019 00:00:00 10,3 8,2 - - 0,0
19.05.2019 23:00:00 10,4 8,1 - - 0,0
19.05.2019 22:00:00 11,0 7,9 - - 0,0
19.05.2019 21:00:00 11,6 8,0 - - 0,0
19.05.2019 20:00:00 12,3 8,0 - - 0,0
19.05.2019 19:00:00 13,2 7,8 - - 0,0
19.05.2019 18:00:00 13,5 8,2 - - 0,0
19.05.2019 17:00:00 13,7 8,1 - - 0,0
19.05.2019 16:00:00 14,3 7,4 - - 0,0
19.05.2019 15:00:00 15,7 8,3 - - 0,0
19.05.2019 14:00:00 14,6 7,3 - - 0,0
19.05.2019 13:00:00 13,3 7,8 - - 0,0
19.05.2019 12:00:00 12,2 8,4 - - 0,0
19.05.2019 11:00:00 11,9 8,7 - - 0,0
19.05.2019 10:00:00 11,1 9,0 12,2 10,5 0,0
19.05.2019 09:00:00 10,5 9,0 - - 0,0
19.05.2019 08:00:00 9,5 9,3 - - 0,0
19.05.2019 07:00:00 8,6 8,6 - - 0,0
19.05.2019 06:00:00 6,2 6,2 - - 0,0
19.05.2019 05:00:00 5,6 5,6 - - 0,0
19.05.2019 04:00:00 5,5 5,5 - - 0,0
19.05.2019 03:00:00 4,9 4,7 - - 0,0
19.05.2019 02:00:00 5,7 5,4 - - 0,0
19.05.2019 01:00:00 6,0 5,5 - - 0,0
19.05.2019 00:00:00 7,1 6,1 - - 0,0
18.05.2019 23:00:00 9,9 9,3 - - 0,0
18.05.2019 22:00:00 10,5 9,7 - - 0,2
18.05.2019 21:00:00 11,0 9,5 - - 0,2
18.05.2019 20:00:00 12,2 8,8 - - 0,0
18.05.2019 19:00:00 12,8 8,9 - - 0,0
18.05.2019 18:00:00 12,6 8,9 - - 0,0
18.05.2019 17:00:00 13,0 8,8 - - 0,0
18.05.2019 16:00:00 13,9 9,8 - - 0,0
18.05.2019 15:00:00 13,1 9,8 - - 0,2
18.05.2019 14:00:00 11,9 10,3 - - 0,6
18.05.2019 13:00:00 13,0 7,4 - - 0,0
18.05.2019 12:00:00 13,6 7,5 - - 0,0
18.05.2019 11:00:00 13,1 7,9 - - 0,0
18.05.2019 10:00:00 11,0 7,7 12,2 10,4 0,0
18.05.2019 09:00:00 10,6 7,8 - - 0,0
18.05.2019 08:00:00 10,2 8,2 - - 0,0
18.05.2019 07:00:00 9,3 8,3 - - 0,0
18.05.2019 06:00:00 8,9 7,8 - - 0,0
18.05.2019 05:00:00 9,0 7,7 - - 0,0
18.05.2019 04:00:00 9,1 7,5 - - 0,0
18.05.2019 03:00:00 9,1 7,4 - - 0,0
18.05.2019 02:00:00 9,1 7,5 - - 0,0
18.05.2019 01:00:00 9,4 7,2 - - 0,0
18.05.2019 00:00:00 9,6 6,6 - - 0,0
17.05.2019 23:00:00 10,1 5,5 - - 0,0
17.05.2019 22:00:00 10,4 6,1 - - 0,0
17.05.2019 21:00:00 11,2 6,3 - - 0,0
17.05.2019 20:00:00 12,8 5,6 - - 0,0
17.05.2019 19:00:00 13,9 6,2 - - 0,0
17.05.2019 18:00:00 14,6 6,5 - - 0,0
17.05.2019 17:00:00 15,0 5,8 - - 0,0
17.05.2019 16:00:00 17,0 7,2 - - 0,0
17.05.2019 15:00:00 18,0 5,8 - - 0,0
17.05.2019 14:00:00 17,2 5,9 - - 0,0
17.05.2019 13:00:00 17,2 7,3 - - 0,0
17.05.2019 12:00:00 14,4 6,4 - - 0,0
17.05.2019 11:00:00 13,9 6,0 - - 0,0
17.05.2019 10:00:00 12,5 5,9 12,0 10,2 0,0
17.05.2019 09:00:00 10,3 6,7 - - 0,0
17.05.2019 08:00:00 10,5 6,2 - - 0,0
17.05.2019 07:00:00 8,5 6,6 - - 0,2
17.05.2019 06:00:00 8,0 5,5 - - 0,0
17.05.2019 05:00:00 7,4 4,3 - - 0,0
17.05.2019 04:00:00 7,2 4,0 - - 0,0
17.05.2019 03:00:00 6,9 4,3 - - 0,0
17.05.2019 02:00:00 7,8 3,1 - - 0,0
17.05.2019 01:00:00 9,0 2,3 - - 0,0
17.05.2019 00:00:00 10,0 1,4 - - 0,0
16.05.2019 23:00:00 9,4 3,6 - - 0,0
16.05.2019 22:00:00 9,7 3,5 - - 0,0
16.05.2019 21:00:00 11,4 2,9 - - 0,0
16.05.2019 20:00:00 12,9 3,0 - - 0,0
16.05.2019 19:00:00 13,2 3,6 - - 0,0
16.05.2019 18:00:00 13,7 3,9 - - 0,0
16.05.2019 17:00:00 14,3 4,5 - - 0,0
16.05.2019 16:00:00 15,3 5,2 - - 0,0
16.05.2019 15:00:00 14,4 3,5 - - 0,0
16.05.2019 14:00:00 15,2 5,8 - - 0,0
16.05.2019 13:00:00 14,9 5,1 - - 0,0
16.05.2019 12:00:00 14,1 5,0 - - 0,0
16.05.2019 11:00:00 13,0 3,0 - - 0,0
16.05.2019 10:00:00 11,9 4,7 12,2 10,0 0,0
16.05.2019 09:00:00 9,9 5,7 - - 0,0
16.05.2019 08:00:00 8,3 5,1 - - 0,0
16.05.2019 07:00:00 6,8 4,3 - - 0,0
16.05.2019 06:00:00 6,0 2,6 - - 0,0
16.05.2019 05:00:00 6,9 2,1 - - 0,0
16.05.2019 04:00:00 8,1 3,3 - - 0,0
16.05.2019 03:00:00 8,9 5,0 - - 0,0
16.05.2019 02:00:00 10,6 5,7 - - 0,0
16.05.2019 01:00:00 11,4 7,7 - - 0,0
16.05.2019 00:00:00 12,3 9,1 - - 0,0
15.05.2019 23:00:00 11,1 8,9 - - 0,0
15.05.2019 22:00:00 12,7 8,9 - - 0,0
15.05.2019 21:00:00 14,8 9,5 - - 0,0
15.05.2019 20:00:00 16,4 9,8 - - 0,0
15.05.2019 19:00:00 17,5 11,3 - - 0,0
15.05.2019 18:00:00 20,2 10,4 - - 0,0
15.05.2019 17:00:00 20,9 11,1 - - 0,0
15.05.2019 16:00:00 20,1 10,4 - - 0,0
15.05.2019 15:00:00 20,8 10,4 - - 0,0
15.05.2019 14:00:00 20,9 10,9 - - 0,0
15.05.2019 13:00:00 19,9 9,7 - - 0,0
15.05.2019 12:00:00 19,2 8,9 - - 0,0
15.05.2019 11:00:00 18,9 9,0 - - 0,0
15.05.2019 10:00:00 17,1 8,1 11,7 9,7 0,0
15.05.2019 09:00:00 14,8 9,2 - - 0,0
15.05.2019 08:00:00 11,3 9,3 - - 0,0
15.05.2019 07:00:00 7,6 7,4 - - 0,0
15.05.2019 06:00:00 5,4 4,6 - - 0,0
15.05.2019 05:00:00 6,5 5,6 - - 0,0
15.05.2019 04:00:00 6,9 6,3 - - 0,0

tt = temperature
td = dewpoint
tt -20cm = temperature -20cm
tt -100cm = temperature -100cm
rr = precipitation

Next stations